User: anonymous   Login
Location: Huntsville
(41.2590°N, 111.7678°W)
Time: 02:43:24
(UTC+00:00)
Language:

Vanguard 2 - Orbit

View from above orbital plane
View from above orbital plane
View from above satellite
View from above satellite

Ground track
Ground track

The orbit data is extracted from the following two-line orbital elements,

1 00011U 59001A   22275.35067226  .00000287  00000-0  13611-3 0  9998
2 00011  32.8752 152.3349 1467175 297.4401  48.4540 11.86174033374357
Epoch (UTC): 02 October 2022 08:24:58
Eccentricity: 0.1467175
inclination: 32.8752°
perigee height: 552 km
apogee height: 2935 km
right ascension of ascending node: 152.3349°
argument of perigee: 297.4401°
revolutions per day: 11.86174033
mean anomaly at epoch: 48.4540°
orbit number at epoch: 37435

The dashed part of the orbit path shows where the satellite is in the earth's shadow,  

DLR